Location: Unspecified
(50.1700°N, 6.8600°E)
Time: 04:23:14
(UTC+00:00)

N. Korean satellite - Pass Details

Date: 20 September 2020
Orbit: 453 x 505 km, 97.2° (Epoch: 21 October)

Event Time Altitude Azimuth Distance (km) Brightness Sun altitude
Rises 04:20:18 0° 25° (NNE) 2,615 10.9 -9.7°
Reaches altitude 10° 04:22:48 10° 41° (NE) 1,719 10.2 -9.3°
Maximum altitude 04:25:41 21° 93° (E) 1,155 9.6 -8.9°
Drops below altitude 10° 04:28:32 10° 144° (SE) 1,689 9.6 -8.4°
Sets 04:30:56 0° 161° (SSE) 2,555 10.3 -8.0°
